Starlink 31656

operational
NORAD ID: 60286 Int'l Des: 2024-132 Owner: SPXS Country: US Constellation: starlink
LEOCIRCULAR

Über Starlink 31656

Beschreibung wird geladen...

Live-Position

3D-Globus wird geladen...

Nächste Überflüge

Höhenverlauf

Altitude vs Time

uPlot chart will show altitude changes over time

Zweizeiliger Elementsatz

1 60286U 24132J 25354.39800453 .00000198 00000-0 18800-4 0 9994
2 60286 53.1617 60.5155 0001316 74.3037 285.8109 15.30192062 79428
Epoch: 20. Dez. 2025 • Age: 18 hours

Aktueller Status

Höhe 477.2 km
Geschwindigkeit 7.63 km/s
Subsatellitenpunkt 34.15°N, 65.98°E
Startdatum 28. Juli 2024
Alter 1.3 years
Typ internet

Technische Details

Klassifizierung Payload
Masse 730.00 kg
Trockenmasse 700.00 kg
Gesamtmasse 730.00 kg
Länge 0.30 m
Durchmesser 4.10 m
Spannweite 29.00 m
Form Box + pan
Hersteller SPXS
Bus-Typ Starlink V2M
Phasenstatus In Orbit
Besitzer/Staat SPXS/US

Große Konstellationen

Loading constellations...